Theta_e
299 299 299 299 299 299 299 300 299 299 300 299 298 299 300 300 300 298 293 294 289 284 284 283 283 279 279 276 270 270 271 270 270 264 260 268 262 270 267 270 269 266 260 256 254 256 258 275 274 268 272 276 276 275
299 299 299 299 299 299 299 299 298 298 299 299 299 299 299 298 299 299 291 295 294 287 284 285 286 287 286 283 278 270 274 267 274 267 264 265 261 260 263 260 273 264 268 262 265 264 275 277 276 279 278 275 276 277
298 298 299 299 299 299 299 299 299 298 299 299 299 298 298 299 299 297 292 292 290 285 284 284 283 286 287 287 288 279 273 280 277 279 273 273 268 270 262 262 266 271 274 271 271 274 275 277 278 278 278 278 279 279
297 298 298 298 298 298 298 298 298 298 298 298 298 297 297 298 298 297 291 292 290 285 278 278 282 282 287 287 286 286 284 281 281 280 278 274 270 277 272 273 271 273 272 269 271 274 276 277 277 278 279 279 278 277
296 297 297 297 297 297 297 298 298 298 298 298 297 297 296 297 297 295 293 293 292 286 278 274 274 281 284 285 284 285 283 282 281 278 276 273 277 276 275 275 272 275 273 270 269 276 275 276 279 279 277 276 275 274
295 296 296 296 296 296 297 297 297 297 297 297 297 297 296 296 296 290 284 291 293 292 282 276 280 275 280 282 282 282 282 282 281 279 277 279 280 277 272 270 276 277 277 278 275 278 278 278 278 274 272 271 272 271
294 295 295 295 296 296 296 296 297 297 297 297 297 296 296 296 291 286 284 284 293 292 282 276 275 273 279 279 275 279 281 281 280 279 277 277 277 279 275 270 276 277 278 278 278 276 275 276 272 270 270 269 268 268
294 294 294 295 295 295 295 296 296 296 296 296 296 296 296 296 294 288 292 294 293 286 284 275 272 267 274 270 271 278 277 279 279 278 276 276 277 277 271 276 277 278 276 273 268 269 268 268 268 267 266 266 263 264
292 293 293 294 294 294 295 295 295 296 296 296 296 295 292 288 284 286 294 296 292 285 277 276 266 264 275 273 275 273 278 272 279 274 275 275 272 270 273 275 276 267 267 264 264 265 264 263 263 263 262 261 260 261
291 292 292 293 293 293 293 294 295 295 295 295 292 284 280 284 292 292 287 283 283 282 281 274 262 264 275 272 269 271 275 272 269 270 275 273 271 276 269 264 264 262 262 262 260 260 258 257 259 259 259 260 260 260
290 290 291 291 292 292 293 294 295 294 294 287 283 280 283 291 283 281 277 276 276 272 276 272 270 268 275 271 271 275 270 268 264 264 266 262 259 270 262 260 261 261 260 259 258 258 258 258 257 257 258 258 257 257
289 289 290 290 291 292 292 293 294 291 286 286 285 286 286 282 278 274 272 274 272 267 264 269 272 276 273 275 270 271 268 268 265 260 266 263 265 259 259 258 258 258 255 254 255 256 257 258 257 256 255 255 255 255
288 289 289 289 290 291 292 292 292 292 290 285 281 278 277 276 270 268 265 262 260 261 261 265 268 272 274 275 272 271 267 265 261 263 263 262 257 255 254 255 255 254 253 253 254 254 254 254 254 253 253 254 253 253
288 288 289 289 289 290 291 291 292 290 285 278 275 270 270 268 267 263 261 260 265 263 260 263 266 270 268 270 271 263 268 266 262 260 257 256 253 250 251 253 248 250 249 251 250 251 252 252 252 252 252 252 251 251
288 288 289 288 289 289 290 290 290 288 282 276 274 268 269 258 253 250 250 259 261 265 267 264 263 272 264 268 271 265 262 261 262 259 255 250 251 252 252 248 246 247 248 248 248 248 250 250 250 250 250 249 250 252
288 286 282 287 288 288 289 288 286 284 280 276 271 266 254 258 252 252 249 252 259 267 263 265 262 265 265 266 266 264 260 258 260 250 248 252 250 247 245 245 246 246 245 246 246 246 249 248 248 249 249 249 252 254
287 281 286 287 287 288 288 280 279 273 271 267 257 252 253 256 257 253 254 257 263 262 259 264 265 262 266 264 261 259 258 253 248 247 248 247 246 244 243 242 244 244 244 244 243 245 245 247 246 245 246 252 254 256
273 279 286 287 284 282 275 273 270 267 260 257 258 250 250 251 252 257 255 261 263 264 264 265 266 261 259 258 255 254 249 244 243 243 245 244 242 241 240 242 244 244 244 244 245 244 241 245 247 250 253 256 256 256
281 281 285 286 283 275 270 264 266 259 253 254 256 257 254 251 256 256 257 260 260 259 260 258 262 256 256 248 245 241 238 240 244 247 246 244 245 242 242 243 244 243 244 242 243 248 250 251 254 255 256 257 256 256
281 282 283 284 280 271 264 262 265 259 250 254 253 253 254 255 254 252 254 258 259 255 256 254 254 246 247 245 244 244 245 247 243 241 243 247 247 242 244 243 246 245 245 246 250 254 254 254 255 255 256 256 256 256
275 275 277 271 268 265 262 261 258 259 257 255 256 256 253 253 251 251 250 253 254 254 251 242 239 239 238 238 240 241 246 247 244 244 243 243 246 246 245 245 246 247 251 252 252 252 253 252 253 254 255 255 256 256
268 273 268 270 266 263 260 260 257 257 256 254 254 253 252 251 247 246 249 250 248 244 242 241 240 238 239 241 241 239 240 238 238 243 247 247 248 249 248 249 251 250 252 252 251 251 252 253 253 253 253 254 255 255
267 266 261 261 261 260 255 260 256 254 256 253 252 253 249 246 246 252 248 242 241 242 237 237 237 235 239 238 237 238 238 240 242 243 246 248 251 251 252 252 252 251 251 252 252 252 252 253 253 252 252 252 252 252
261 253 251 251 253 252 251 250 253 252 251 250 250 247 244 241 247 246 245 238 241 239 239 239 237 241 240 240 240 240 241 241 243 245 248 250 251 251 253 253 252 252 251 251 252 251 252 251 252 251 251 249 249 248
255 246 247 244 246 248 247 245 243 246 243 240 243 243 243 240 243 242 244 242 238 238 239 236 237 240 241 238 240 242 245 249 251 250 251 252 251 252 253 253 253 252 251 250 250 249 249 250 250 249 249 247 246 246
243 240 242 237 242 244 241 243 241 242 240 241 240 239 237 241 243 245 243 241 238 240 241 244 245 241 242 243 245 249 250 252 251 250 251 252 252 250 250 250 250 251 250 248 247 246 247 249 247 248 248 248 247 245
242 240 240 239 240 240 241 239 239 241 241 243 240 241 241 244 243 245 242 242 242 242 244 247 247 247 246 245 249 251 251 252 252 252 251 251 252 252 252 250 250 252 250 249 248 246 246 246 247 248 248 247 242 240
239 237 241 240 239 235 238 237 238 240 240 240 240 243 245 246 246 246 246 247 245 244 245 245 247 247 248 251 252 253 252 251 250 251 251 251 251 251 251 252 251 257 252 250 249 249 247 246 246 246 246 246 247 241
239 235 237 240 238 240 239 240 239 238 239 237 242 242 243 245 241 241 246 247 243 246 246 247 249 249 252 252 253 253 251 249 249 249 248 248 249 251 250 250 250 249 248 247 251 254 251 248 248 248 249 247 245 239
239 234 240 238 241 241 239 236 236 232 232 235 235 241 241 241 241 241 243 245 246 246 246 247 247 250 250 250 248 249 246 248 250 250 247 247 248 247 243 244 245 245 242 240 245 245 249 246 245 242 242 243 242 242
233 233 237 237 240 236 233 229 228 229 230 231 229 236 238 237 241 240 242 243 244 243 245 244 242 239 242 241 241 242 246 244 242 245 245 245 244 244 245 246 246 244 241 241 242 242 243 242 241 242 243 244 245 245
233 233 237 241 239 234 230 230 229 233 231 234 236 230 236 239 242 244 243 240 240 241 243 241 241 246 244 246 241 242 247 244 242 246 246 248 249 249 249 249 247 243 242 244 244 243 243 243 244 245 246 246 246 245
231 229 228 234 236 238 234 234 235 236 234 234 235 231 231 235 242 244 243 238 242 242 242 243 244 241 242 243 245 247 249 249 248 254 255 255 253 253 251 249 247 246 246 246 246 246 246 246 246 246 246 247 247 247
Wind_Speed
24 23 23 22 22 22 22 19 18 20 20 20 20 23 19 18 17 12 4 10 9 4 9 9 9 9 2 4 5 5 4 3 3 2 4 4 3 4 1 3 4 6 4 5 3 3 8 4 4 5 7 4 5 4
26 26 26 25 25 24 24 24 21 24 22 21 19 20 19 21 20 15 6 9 11 7 4 3 9 10 15 11 6 3 7 6 5 3 2 2 3 2 3 4 3 3 7 6 9 8 4 4 9 14 4 7 8 8
26 25 25 25 25 25 25 22 25 23 22 20 19 20 19 20 22 18 7 5 6 5 4 5 12 13 7 14 13 9 3 6 5 4 4 4 8 4 4 8 4 6 3 9 14 17 17 18 18 8 8 14 15 12
25 26 25 24 24 24 25 25 25 24 23 23 21 21 21 19 19 17 6 5 7 3 5 8 3 6 10 11 13 14 13 2 3 4 6 6 6 5 8 9 11 8 5 6 13 18 14 17 16 17 17 14 10 6
24 24 25 25 25 24 24 24 25 25 24 23 22 21 18 18 19 11 4 7 9 6 2 3 2 6 6 13 14 11 11 9 7 6 6 9 7 7 5 6 13 10 18 11 13 20 16 17 19 9 7 6 4 4
24 24 24 25 25 25 26 26 25 25 24 24 23 22 20 17 15 2 3 7 11 7 5 4 1 4 8 9 13 13 12 8 6 4 6 8 5 8 6 8 14 11 11 16 20 19 17 16 6 4 2 3 4 4
23 24 24 25 25 25 26 26 26 26 25 25 25 24 21 18 7 5 3 2 11 8 4 4 3 3 1 4 1 3 6 4 5 6 8 12 10 7 7 14 16 10 15 15 11 6 12 6 1 5 4 6 7 6
22 24 24 25 24 24 25 26 25 25 24 23 23 23 22 20 15 9 9 7 9 3 4 4 3 3 3 2 3 4 4 5 6 6 2 9 6 8 12 14 13 15 7 1 6 6 3 4 2 5 6 7 10 10
20 21 23 24 24 23 23 23 24 23 23 20 19 20 7 5 4 4 11 20 8 6 4 3 6 6 4 3 2 1 3 4 3 6 6 5 6 10 7 12 12 3 2 2 4 2 3 3 5 5 6 5 8 12
21 20 19 20 22 22 23 24 21 21 22 20 10 4 3 5 6 6 3 4 8 6 5 4 2 3 5 4 2 3 4 4 5 7 2 6 14 15 2 5 7 6 5 3 2 1 4 2 7 10 8 8 9 11
18 20 20 19 18 19 20 23 23 19 20 4 5 4 2 9 3 3 6 6 3 3 3 2 5 4 3 4 5 4 3 3 4 7 7 4 4 4 6 7 6 7 6 5 2 2 3 5 8 9 10 8 10 11
22 21 19 19 19 18 16 15 18 11 4 7 5 5 3 4 4 6 5 4 4 7 2 5 5 5 3 4 4 3 5 3 7 2 3 3 6 4 4 4 5 6 5 3 2 4 6 8 8 9 10 11 11 12
20 21 22 19 17 19 20 19 19 15 10 3 4 6 5 5 8 8 9 3 2 3 5 3 4 4 3 3 3 4 5 6 2 2 4 6 3 4 3 2 2 3 2 3 4 4 7 8 7 7 11 10 12 12
21 20 19 20 19 18 18 18 18 11 7 6 7 8 8 5 6 6 7 6 5 3 4 2 3 3 2 3 2 3 2 4 3 3 7 3 4 2 2 0 2 4 4 5 6 7 8 9 9 8 9 10 10 11
17 17 19 17 19 18 16 17 17 7 3 5 4 8 6 2 3 0 0 4 1 2 4 3 3 3 1 2 4 2 1 5 7 7 4 2 3 2 1 1 2 4 5 5 5 6 8 8 8 9 8 8 9 11
15 12 7 13 16 17 18 16 7 3 3 4 3 4 2 4 3 2 2 1 2 3 2 2 3 3 4 4 5 7 5 8 6 3 2 2 1 2 2 3 4 5 5 6 6 6 8 8 8 9 9 9 9 8
11 2 9 15 14 16 17 3 3 2 2 2 1 3 2 3 4 4 3 4 0 1 4 3 6 8 2 3 4 5 7 3 3 2 1 1 1 3 4 4 5 5 6 6 4 6 6 7 6 5 6 6 5 6
2 4 7 10 5 8 3 6 4 4 5 3 2 3 3 3 3 3 2 1 2 3 3 4 3 3 6 6 5 2 2 1 1 2 2 2 3 4 3 5 6 5 6 6 6 6 4 6 5 4 5 6 6 5
9 8 8 5 8 5 4 5 4 5 1 2 3 2 3 2 3 4 3 2 1 0 3 3 3 4 5 2 3 2 2 3 2 1 1 3 2 3 4 4 4 4 4 4 4 4 4 4 4 5 5 4 3 3
10 19 19 16 9 4 5 4 3 5 3 2 3 3 3 3 2 2 2 1 1 2 3 2 4 3 3 3 3 3 3 3 3 2 2 2 2 2 3 2 3 4 4 4 4 6 5 5 4 5 5 5 4 4
8 8 12 7 5 7 5 3 4 3 3 4 1 1 3 2 3 1 2 4 3 2 0 2 3 3 1 1 0 1 2 3 3 4 4 1 3 1 2 3 3 2 2 4 5 5 6 5 6 6 5 5 4 5
2 9 4 7 5 4 5 5 3 2 3 2 3 2 2 1 3 3 3 3 1 2 3 3 3 2 2 0 2 3 2 3 1 0 1 1 1 2 2 1 2 2 3 4 4 5 5 5 6 5 5 6 6 5
6 5 5 6 5 6 2 3 2 4 3 2 1 2 4 3 2 3 2 2 3 1 2 2 1 1 3 2 1 1 3 4 1 1 1 2 2 2 1 0 1 2 3 3 3 4 4 7 6 5 5 5 5 5
11 9 8 6 6 3 2 5 3 3 3 4 3 3 2 1 4 4 2 3 4 2 1 1 3 3 3 3 1 2 2 3 1 1 2 1 1 1 1 1 1 0 1 3 3 3 4 4 6 4 4 4 4 3
9 11 7 7 4 5 6 4 5 5 3 1 3 1 1 2 2 1 2 4 2 2 0 1 1 2 4 2 2 3 3 3 2 1 2 2 1 1 1 1 1 2 0 1 2 3 3 3 3 3 3 2 5 5
11 5 5 1 4 4 1 3 3 2 2 3 1 2 3 4 4 4 4 3 3 4 5 6 6 2 2 4 3 2 3 3 2 2 2 3 3 2 2 2 1 2 3 2 2 2 4 3 3 5 4 4 6 5
7 4 3 0 3 2 3 2 1 3 3 2 2 2 4 2 4 5 3 3 3 4 5 5 5 4 4 3 2 1 2 3 3 2 1 2 3 4 4 4 4 3 4 3 3 3 4 5 5 5 6 4 3 3
3 3 3 5 3 1 4 2 2 1 2 1 3 2 6 7 5 4 4 2 3 1 2 2 3 3 2 2 2 3 1 0 2 4 3 4 4 4 5 4 4 8 5 4 4 4 5 5 5 6 6 6 7 3
3 3 1 4 4 4 1 3 2 3 1 3 3 2 4 4 3 2 2 1 1 3 3 3 0 1 1 1 1 2 2 2 2 2 2 3 3 3 3 3 3 3 2 3 7 8 7 7 7 7 7 5 4 3
4 2 2 1 2 1 3 3 2 2 1 2 1 4 3 4 4 2 1 1 2 3 3 3 2 3 2 3 2 3 3 4 5 5 4 4 5 3 2 3 3 3 2 2 5 5 6 3 5 3 3 4 3 4
1 2 2 1 1 3 3 2 2 1 2 1 1 2 4 5 6 3 2 2 2 3 3 1 2 2 4 3 3 1 4 3 5 7 5 4 4 5 5 5 5 4 3 4 4 4 4 3 3 5 7 8 8 6
4 2 1 3 3 3 3 3 1 1 3 3 2 2 4 3 4 4 1 3 3 1 4 3 3 5 5 4 2 3 4 3 3 4 7 5 6 7 6 5 4 4 4 5 5 5 5 8 7 8 8 10 9 9
1 0 0 2 4 5 4 3 4 4 3 2 3 1 2 2 4 5 3 3 4 4 4 4 4 3 4 5 5 4 5 5 6 9 10 11 12 11 6 5 5 5 6 6 7 6 8 9 10 11 11 12 12 11
Wind_Direction
252 251 251 254 250 248 253 252 254 257 247 246 250 248 244 246 247 243 206 187 199 215 236 201 206 210 150 156 173 228 29 333 48 95 138 247 195 228 288 262 207 185 168 224 75 29 293 216 353 154 221 244 238 265
258 255 252 250 249 247 249 249 245 251 258 253 255 258 259 247 256 242 248 195 199 227 242 203 228 223 214 193 163 225 201 173 182 108 247 61 290 349 174 242 180 279 197 190 181 216 249 232 250 279 237 229 263 255
260 260 255 257 252 253 259 246 246 253 251 245 242 242 247 254 254 245 237 181 206 227 230 185 225 224 222 215 202 226 252 177 208 177 173 213 234 147 224 238 245 243 203 254 271 265 256 265 271 259 269 270 281 270
260 259 258 257 257 255 255 254 253 253 249 249 247 250 253 247 254 254 231 179 221 206 233 244 24 192 207 199 201 216 236 123 156 158 220 213 230 204 249 253 232 233 172 212 250 263 267 261 259 263 268 274 265 251
264 260 257 255 257 258 257 255 251 251 249 244 248 252 258 256 259 255 231 194 198 224 296 275 329 241 178 187 204 209 221 226 221 225 224 241 240 235 233 236 244 217 239 232 248 259 260 271 274 275 260 275 310 321
262 261 259 256 256 257 257 254 251 250 245 241 242 245 247 248 246 189 245 203 197 200 261 221 253 195 200 187 193 199 205 210 209 216 232 235 233 205 232 246 256 248 226 235 248 257 266 267 286 54 10 15 346 333
264 262 259 258 257 257 255 253 250 247 244 243 235 239 243 244 227 206 211 261 204 177 222 252 248 292 338 141 153 153 181 187 211 228 233 245 237 207 242 254 268 244 230 242 253 273 272 275 320 14 9 331 316 292
270 267 263 259 258 257 255 252 250 246 243 238 236 234 236 242 245 240 224 205 166 220 205 229 247 7 183 173 204 174 169 188 209 225 247 230 242 227 247 253 246 247 259 71 55 39 16 345 38 351 347 340 325 317
280 273 268 264 258 256 259 255 247 242 238 230 231 233 243 222 199 209 199 203 189 202 219 197 159 230 160 186 145 30 167 196 196 218 223 182 218 224 209 235 246 110 119 5 350 6 34 358 329 346 344 325 304 307
271 273 273 264 257 259 263 252 237 239 229 222 212 184 201 186 178 158 192 224 209 188 214 195 66 202 158 160 183 136 195 209 210 227 174 219 246 250 138 99 99 101 87 37 32 332 349 334 335 327 318 307 297 301
273 271 264 262 264 258 263 254 233 225 219 191 177 185 130 156 88 173 215 204 177 229 214 152 170 142 206 149 186 216 196 217 216 241 172 215 260 210 107 96 84 78 73 76 62 324 290 276 296 304 304 301 297 292
257 258 264 263 253 247 248 260 224 205 177 168 144 111 150 180 189 202 193 181 201 214 259 152 182 177 174 146 153 207 200 176 235 110 182 237 235 122 106 92 74 52 39 14 347 305 305 300 305 299 296 299 295 294
264 259 257 255 254 249 241 232 235 213 160 122 188 152 181 178 199 190 178 234 193 187 197 180 181 148 155 197 196 185 216 228 98 154 225 228 108 95 47 41 39 7 11 329 316 304 293 285 284 276 288 285 288 290
262 257 256 250 245 244 237 229 226 205 217 195 171 189 186 177 207 179 170 179 223 133 136 124 113 159 195 173 187 197 207 133 241 228 231 220 149 160 298 342 30 332 325 310 293 290 289 290 290 283 268 278 283 285
254 255 243 242 235 234 226 230 223 197 218 216 186 186 182 193 51 171 122 108 212 136 137 90 39 145 193 215 208 169 192 234 206 220 223 197 144 182 278 295 310 306 304 289 275 276 286 283 284 288 276 269 269 273
244 245 239 233 237 231 224 219 204 185 215 226 76 97 8 69 333 11 16 316 270 151 91 65 132 143 210 197 201 212 181 217 238 191 195 127 125 315 288 285 282 270 272 277 281 277 289 284 278 279 289 279 269 265
256 190 246 232 223 220 218 133 152 103 54 61 117 359 81 64 144 165 152 182 187 87 173 153 171 207 79 195 234 193 206 215 179 176 188 183 211 269 274 283 287 288 290 283 271 276 269 265 274 279 279 277 276 292
51 283 301 246 183 66 46 21 78 76 72 31 15 307 31 24 98 133 96 47 145 182 170 178 123 153 194 193 250 200 178 249 238 200 213 240 247 269 234 264 288 276 277 282 268 271 264 286 283 272 286 308 309 309
37 4 319 160 103 90 60 31 19 97 87 98 86 56 80 115 41 37 72 80 96 250 117 50 135 199 225 179 177 243 248 204 173 182 255 276 263 263 285 277 280 291 292 275 293 289 281 283 312 325 322 316 316 319
47 33 30 80 72 75 78 35 14 82 106 154 57 41 56 55 36 353 60 356 80 80 75 155 210 206 163 208 177 165 174 163 122 51 326 300 267 335 318 298 298 290 300 323 320 353 347 346 347 337 332 341 341 340
39 353 25 54 63 57 69 52 59 63 124 83 87 44 81 45 40 0 22 329 61 57 272 199 207 247 302 282 344 106 127 153 184 169 179 221 286 332 335 326 317 326 352 354 352 353 6 356 337 335 338 347 350 354
342 20 54 25 82 78 77 17 89 86 67 79 89 7 65 84 17 354 283 48 88 228 174 172 212 161 39 289 229 210 204 133 90 107 258 270 341 360 344 336 351 353 5 9 352 345 344 347 349 351 356 356 0 13
21 31 53 18 85 49 52 335 88 8 88 93 186 79 38 20 305 299 38 193 248 242 187 158 172 166 155 258 185 104 182 139 131 209 247 237 243 249 251 162 16 12 360 4 340 331 339 349 349 360 359 7 7 12
31 46 36 42 21 82 1 31 21 56 56 39 53 75 346 272 329 42 249 263 254 314 40 162 107 55 348 12 51 246 241 151 146 278 221 218 244 241 239 232 174 102 347 303 324 335 345 345 350 354 1 354 356 354
69 356 25 8 4 46 42 24 358 56 80 1 96 34 298 2 68 29 243 273 286 261 282 52 186 171 158 249 289 264 226 170 177 206 237 195 226 278 254 252 192 180 275 332 351 340 329 324 334 335 338 331 346 342
68 315 49 301 333 68 312 60 37 133 116 55 19 270 26 75 59 257 241 228 225 196 189 189 178 168 258 200 162 187 220 171 147 201 258 187 198 189 211 242 283 265 188 173 208 283 305 307 305 324 324 331 336 331
64 337 325 280 133 118 53 28 87 83 73 124 238 57 69 105 245 252 276 215 205 217 200 177 170 166 186 196 227 217 148 164 196 214 206 213 220 206 200 209 234 235 165 200 213 219 264 291 296 300 303 300 259 252
129 27 72 311 33 13 120 61 67 127 221 243 82 169 174 192 228 236 209 234 209 218 146 160 167 165 152 180 165 133 158 206 287 277 272 253 230 217 215 227 237 253 236 213 224 234 234 249 263 275 279 277 287 232
37 325 51 14 6 34 79 136 205 243 216 114 150 245 248 241 238 241 289 308 108 103 101 110 167 108 97 89 160 193 171 154 101 343 318 292 325 293 198 214 230 234 233 246 266 265 251 236 239 244 255 256 273 271
332 14 63 57 84 321 255 164 226 265 252 205 263 306 299 279 253 239 271 104 134 179 187 170 169 162 196 186 260 298 242 203 199 182 198 231 228 254 238 238 244 249 230 238 269 284 295 330 324 326 314 289 267 271
310 19 46 57 219 253 236 278 295 299 9 348 325 174 252 299 306 256 204 222 152 107 119 175 261 217 173 197 190 219 294 263 215 230 240 259 267 259 253 247 239 228 221 227 244 250 262 266 246 275 284 283 282 273
6 74 85 356 309 294 25 41 359 44 334 19 300 338 319 347 303 296 290 94 81 191 231 178 193 249 216 240 236 250 239 273 241 234 243 248 256 255 256 253 235 217 225 238 236 235 232 246 263 264 271 275 275 273
24 49 154 359 355 0 332 27 18 345 13 1 298 240 235 189 249 287 302 187 193 199 217 225 237 244 242 238 238 255 250 249 261 270 268 258 255 259 257 242 228 220 230 241 246 241 246 250 259 262 263 263 267 269